Millbury, Ohio, United States (43447)
Lat: 41.57N, Lon: 83.42W
Wx Zone: OHZ006
Local Info
Past Weather Observations for Today

NOTE: This archive is for the closest National Weather Service station to Millbury. Information may differ from the station used for current weather conditions.

Click here for Long-term Archive

Time Weather Temperature Dewpoint Humidity Pressure Winds Precip Visibility
17:53
Overcast
46°F / 8°C 37°F / 3°C 71% 30.15 in
(1021 mb)
NNW 15 mph
(NNW 24 kph)
- 10SM
17:09
Overcast
46°F / 8°C 37°F / 3°C 71% 30.12 in
(1020 mb)
NNW 12.7 mph
(NNW 20 kph)
- 10SM
16:53
Overcast
46°F / 8°C 37°F / 3°C 71% 30.12 in
(1020 mb)
NNW 11.5 mph
(NNW 19 kph)
- 10SM
16:15
Overcast
48°F / 9°C 37°F / 3°C 66% 30.12 in
(1020 mb)
NNW 9.2 mph
(NNW 15 kph)
- 10SM
15:53
Overcast
48°F / 9°C 37°F / 3°C 66% 30.12 in
(1020 mb)
N 13.8 mph
(N 22 kph)
- 10SM
15:39
Overcast
48°F / 9°C 37°F / 3°C 66% 30.09 in
(1019 mb)
NW 13.8 mph
(NW 22 kph)
- 10SM
14:53
Overcast
48°F / 9°C 37°F / 3°C 66% 30.09 in
(1019 mb)
NNW 12.7 mph
(NNW 20 kph)
- 10SM
14:03
Overcast
48°F / 9°C 37°F / 3°C 66% 30.09 in
(1019 mb)
NNW 13.8 mph
(NNW 22 kph)
- 10SM
13:53
Overcast
48°F / 9°C 37°F / 3°C 66% 30.06 in
(1018 mb)
NNW 12.7 mph
(NNW 20 kph)
- 10SM
12:53
Overcast
48°F / 9°C 39°F / 4°C 71% 30.06 in
(1018 mb)
N 10.4 mph
(N 17 kph)
- 10SM
11:53
Overcast
50°F / 10°C 39°F / 4°C 67% 30.06 in
(1018 mb)
N 17.3 mph
(N 28 kph)
- 10SM
10:53
Overcast
50°F / 10°C 43°F / 6°C 76% 30.04 in
(1017 mb)
N 8.1 mph
(N 13 kph)
0.00 in
(0.00 mm)
10SM
10:16
Overcast
50°F / 10°C 43°F / 6°C 76% 30.04 in
(1017 mb)
N 12.7 mph
(N 20 kph)
0.00 in
(0.00 mm)
10SM
09:53
Overcast
50°F / 10°C 45°F / 7°C 82% 30.04 in
(1017 mb)
NNW 15 mph
(NNW 24 kph)
- 10SM
09:45
Overcast
50°F / 10°C 43°F / 6°C 76% 30.01 in
(1016 mb)
NNW 12.7 mph
(NNW 20 kph)
- 10SM
09:22
Overcast
48°F / 9°C 45°F / 7°C 87% 30.01 in
(1016 mb)
NNW 11.5 mph
(NNW 19 kph)
- 10SM
08:53
Overcast
48°F / 9°C 45°F / 7°C 87% 30.01 in
(1016 mb)
NW 10.4 mph
(NW 17 kph)
- 10SM
08:51
Overcast
48°F / 9°C 45°F / 7°C 87% 30.01 in
(1016 mb)
NNW 10.4 mph
(NNW 17 kph)
- 10SM
07:53
Overcast
48°F / 9°C 43°F / 6°C 82% 29.98 in
(1015 mb)
NW 12.7 mph
(NW 20 kph)
- 10SM
06:53
Overcast
48°F / 9°C 43°F / 6°C 82% 29.98 in
(1015 mb)
NW 9.2 mph
(NW 15 kph)
- 10SM
05:53
Overcast
48°F / 9°C 43°F / 6°C 82% 29.95 in
(1014 mb)
NW 10.4 mph
(NW 17 kph)
- 10SM
04:53
Overcast
50°F / 10°C 43°F / 6°C 76% 29.92 in
(1013 mb)
NW 9.2 mph
(NW 15 kph)
- 10SM
03:53
Overcast
50°F / 10°C 43°F / 6°C 76% 29.92 in
(1013 mb)
NNW 9.2 mph
(NNW 15 kph)
- 10SM
02:53
Overcast
50°F / 10°C 43°F / 6°C 76% 29.92 in
(1013 mb)
NW 9.2 mph
(NW 15 kph)
- 10SM
02:22
Overcast
50°F / 10°C 45°F / 7°C 82% 29.92 in
(1013 mb)
NNW 10.4 mph
(NNW 17 kph)
- 10SM
01:53
Overcast
50°F / 10°C 45°F / 7°C 82% 29.92 in
(1013 mb)
NW 9.2 mph
(NW 15 kph)
- 10SM
01:19
Overcast
50°F / 10°C 45°F / 7°C 82% 29.89 in
(1012 mb)
NW 9.2 mph
(NW 15 kph)
- 10SM
00:53
Overcast
52°F / 11°C 46°F / 8°C 82% 29.89 in
(1012 mb)
NNW 10.4 mph
(NNW 17 kph)
- 10SM
Time Weather Temperature Dewpoint Humidity Pressure Winds Precip Visibility


Weather for websites

WeatherForYou.com, LLC is not responsible for any damages or problems caused by this service. Current weather conditions are obtained from the closest station including government and personal stations which may have varying degrees of accuracy. Weather forecasts are derived from the NOAA NDFD. Like all things, this site belongs to Jesus Christ... He just trusts me to maintain it. If you have any questions or comments email webmaster@weatherforyou.com

Copyright © 2014, WeatherForYou.com LLC. All rights reserved.